Location: Asheville, NC
(35.6000°N, 82.5500°W)
Time: 20:43:20
(UTC-04:00)

KKS-1 - Pass Details

Date: 12 March 2018
Orbit: 638 x 649 km, 98.4° (Epoch: 20 June)

Event Time Altitude Azimuth Distance (km) Brightness Sun altitude
Rises 07:11:29 0° 197° (SSW) 2,943 ? -7.7°
Reaches altitude 10° 07:14:03 10° 211° (SSW) 2,040 ? -7.2°
Maximum altitude 07:17:35 23° 264° (W) 1,375 ? -6.4°
Drops below altitude 10° 07:21:09 10° 317° (NW) 2,054 ? -5.7°
Sets 07:23:46 0° 332° (NNW) 2,969 ? -5.2°
